| time (UTC) | temp F | wind direction | speed MPH | gust MPH | rain 1hr in | rain 24hr in | rain mn in | humidity % | barometer mb |
| 20260505005413 | 58 | 288 | 2.0 | 3.0 | 0.00 | 0.05 | 0.02 | 59 | 1023.1 |
| 20260505004513 | 58 | 289 | 2.0 | 3.0 | 0.00 | 0.05 | 0.02 | 58 | 1023.1 |
| 20260505003614 | 59 | 255 | 2.0 | 7.0 | 0.00 | 0.05 | 0.02 | 59 | 1022.9 |
| 20260505002713 | 61 | 291 | 2.0 | 6.0 | 0.00 | 0.05 | 0.02 | 59 | 1022.9 |
| 20260505001813 | 60 | 296 | 1.0 | 3.0 | 0.00 | 0.05 | 0.02 | 62 | 1022.9 |
| 20260505000913 | 59 | 265 | 1.0 | 4.0 | 0.00 | 0.05 | 0.02 | 65 | 1022.8 |
| 20260505000013 | 59 | 175 | 1.0 | 4.0 | 0.00 | 0.05 | 0.02 | 67 | 1022.8 |
| 20260504235113 | 58 | 160 | 1.0 | 4.0 | 0.00 | 0.05 | 0.02 | 67 | 1022.8 |
| 20260504234213 | 59 | 160 | 0.0 | 4.0 | 0.00 | 0.05 | 0.02 | 68 | 1022.7 |
| 20260504232413 | 58 | 160 | 1.0 | 4.0 | 0.00 | 0.05 | 0.02 | 68 | 1022.6 |
| 20260504231513 | 57 | 160 | 1.0 | 4.0 | 0.00 | 0.05 | 0.02 | 68 | 1022.6 |
| 20260504230613 | 57 | 160 | 2.0 | 4.0 | 0.00 | 0.05 | 0.02 | 68 | 1022.5 |
| 20260504225713 | 57 | 159 | 1.0 | 5.0 | 0.00 | 0.05 | 0.02 | 68 | 1022.4 |
| 20260504224813 | 57 | 155 | 1.0 | 4.0 | 0.00 | 0.05 | 0.02 | 68 | 1022.3 |
| 20260504223913 | 56 | 155 | 2.0 | 3.0 | 0.00 | 0.05 | 0.02 | 68 | 1022.3 |
| 20260504223012 | 55 | 142 | 2.0 | 3.0 | 0.00 | 0.05 | 0.02 | 67 | 1022.2 |
| 20260504222113 | 55 | 137 | 1.0 | 3.0 | 0.00 | 0.05 | 0.02 | 67 | 1022.1 |
| 20260504221213 | 55 | 141 | 1.0 | 4.0 | 0.00 | 0.05 | 0.02 | 67 | 1022.0 |
| 20260504220313 | 55 | 143 | 1.0 | 3.0 | 0.00 | 0.05 | 0.02 | 67 | 1021.9 |
| 20260504215413 | 54 | 242 | 1.0 | 3.0 | 0.00 | 0.05 | 0.02 | 67 | 1021.8 |
| 20260504213613 | 54 | 151 | 0.0 | 1.0 | 0.00 | 0.05 | 0.02 | 67 | 1021.7 |
| 20260504212713 | 54 | 152 | 1.0 | 3.0 | 0.00 | 0.05 | 0.02 | 67 | 1021.6 |
| 20260504211813 | 54 | 151 | 1.0 | 2.0 | 0.00 | 0.05 | 0.02 | 67 | 1021.5 |
| 20260504210913 | 54 | 151 | 1.0 | 3.0 | 0.00 | 0.05 | 0.02 | 67 | 1021.4 |
| 20260504210012 | 54 | 152 | 1.0 | 3.0 | 0.00 | 0.05 | 0.02 | 67 | 1021.3 |
| 20260504205113 | 54 | 151 | 1.0 | 3.0 | 0.00 | 0.05 | 0.02 | 66 | 1021.1 |
| 20260504204212 | 54 | 151 | 1.0 | 3.0 | 0.00 | 0.05 | 0.02 | 67 | 1021.0 |
| 20260504202413 | 54 | 151 | 1.0 | 3.0 | 0.00 | 0.05 | 0.02 | 66 | 1021.0 |
| 20260504201513 | 54 | 151 | 1.0 | 1.0 | 0.00 | 0.05 | 0.02 | 66 | 1020.9 |
| 20260504200613 | 54 | 151 | 0.0 | 1.0 | 0.01 | 0.05 | 0.02 | 66 | 1020.8 |
| 20260504195712 | 53 | 152 | 1.0 | 5.0 | 0.01 | 0.05 | 0.02 | 66 | 1020.8 |
| 20260504194813 | 53 | 146 | 2.0 | 5.0 | 0.01 | 0.05 | 0.02 | 66 | 1020.6 |
| 20260504193012 | 53 | 116 | 1.0 | 3.0 | 0.01 | 0.05 | 0.02 | 66 | 1020.5 |
| 20260504192113 | 53 | 116 | 2.0 | 3.0 | 0.01 | 0.05 | 0.02 | 66 | 1020.4 |
| 20260504191213 | 53 | 117 | 1.0 | 2.0 | 0.01 | 0.05 | 0.02 | 66 | 1020.3 |
| 20260504190313 | 54 | 117 | 1.0 | 1.0 | 0.00 | 0.04 | 0.01 | 66 | 1020.3 |
| 20260504185413 | 54 | 117 | 1.0 | 2.0 | 0.00 | 0.04 | 0.01 | 66 | 1020.2 |
| 20260504184513 | 54 | 117 | 1.0 | 2.0 | 0.00 | 0.04 | 0.01 | 66 | 1020.2 |
| 20260504183613 | 54 | 116 | 0.0 | 2.0 | 0.00 | 0.04 | 0.01 | 66 | 1020.2 |
| 20260504182712 | 54 | 117 | 0.0 | 2.0 | 0.00 | 0.04 | 0.01 | 66 | 1020.1 |
| 20260504181813 | 54 | 116 | 0.0 | 2.0 | 0.00 | 0.04 | 0.01 | 66 | 1020.0 |
| 20260504180913 | 54 | 116 | 0.0 | 2.0 | 0.00 | 0.04 | 0.01 | 66 | 1020.0 |
| 20260504180012 | 54 | 117 | 0.0 | 2.0 | 0.00 | 0.04 | 0.01 | 66 | 1019.9 |
| 20260504175112 | 54 | 116 | 0.0 | 2.0 | 0.00 | 0.04 | 0.01 | 66 | 1020.0 |
| 20260504172413 | 54 | 83 | 2.0 | 3.0 | 0.01 | 0.04 | 0.01 | 66 | 1020.1 |
| 20260504171512 | 54 | 104 | 2.0 | 3.0 | 0.01 | 0.04 | 0.01 | 66 | 1020.1 |
| 20260504160312 | 54 | 139 | 1.0 | 4.0 | 0.00 | 0.04 | 0.00 | 66 | 1020.1 |
| 20260504150912 | 54 | 0 | 0.0 | 0.0 | 0.00 | 0.07 | 0.00 | 66 | 1020.1 |
| 20260504140611 | 54 | 0 | 0.0 | 0.0 | 0.00 | 0.09 | 0.09 | 66 | 1019.7 |
| 20260504130312 | 56 | 0 | 0.0 | 0.0 | 0.00 | 0.09 | 0.09 | 66 | 1019.5 |
| 20260504110612 | 58 | 187 | 3.0 | 9.0 | 0.03 | 0.09 | 0.09 | 65 | 1018.7 |
| 20260504100311 | 59 | 186 | 0.0 | 2.0 | 0.00 | 0.17 | 0.06 | 64 | 1017.9 |
| 20260504081510 | 61 | 258 | 8.0 | 15.0 | 0.00 | 0.17 | 0.06 | 54 | 1016.2 |
| 20260504070311 | 63 | 251 | 10.0 | 19.0 | 0.00 | 0.17 | 0.06 | 52 | 1015.6 |
| 20260504050611 | 67 | 236 | 9.0 | 17.0 | 0.00 | 0.19 | 0.06 | 47 | 1014.5 |
| 20260504045710 | 67 | 248 | 10.0 | 17.0 | 0.00 | 0.19 | 0.06 | 48 | 1014.3 |
| 20260504043010 | 67 | 253 | 12.0 | 20.0 | 0.00 | 0.19 | 0.06 | 47 | 1014.2 |
| 20260504040311 | 67 | 251 | 13.0 | 21.0 | 0.00 | 0.19 | 0.06 | 47 | 1014.1 |
| 20260504035411 | 67 | 244 | 12.0 | 19.0 | 0.00 | 0.19 | 0.06 | 49 | 1014.2 |
| 20260504034510 | 68 | 247 | 12.0 | 22.0 | 0.00 | 0.19 | 0.06 | 46 | 1014.2 |
| 20260504033610 | 69 | 242 | 12.0 | 22.0 | 0.00 | 0.19 | 0.06 | 45 | 1014.1 |
| 20260504032710 | 68 | 239 | 11.0 | 21.0 | 0.00 | 0.19 | 0.06 | 48 | 1014.1 |
| 20260504031811 | 67 | 242 | 11.0 | 20.0 | 0.00 | 0.19 | 0.06 | 46 | 1014.2 |
| 20260504030910 | 68 | 247 | 12.0 | 20.0 | 0.00 | 0.19 | 0.06 | 47 | 1014.2 |
| 20260504030010 | 71 | 248 | 10.0 | 21.0 | 0.00 | 0.19 | 0.06 | 48 | 1014.3 |
| 20260504024210 | 65 | 247 | 9.0 | 18.0 | 0.00 | 0.19 | 0.06 | 53 | 1014.4 |
| 20260504023310 | 67 | 259 | 10.0 | 17.0 | 0.00 | 0.19 | 0.06 | 49 | 1014.4 |
| 20260504022410 | 67 | 241 | 10.0 | 20.0 | 0.00 | 0.19 | 0.06 | 48 | 1014.4 |
| 20260504021510 | 67 | 240 | 11.0 | 20.0 | 0.00 | 0.19 | 0.06 | 51 | 1014.5 |
| 20260504020610 | 65 | 237 | 11.0 | 18.0 | 0.00 | 0.19 | 0.06 | 53 | 1014.5 |
| 20260504014810 | 67 | 260 | 13.0 | 21.0 | 0.00 | 0.19 | 0.06 | 51 | 1014.4 |
| 20260504013010 | 65 | 245 | 11.0 | 20.0 | 0.00 | 0.19 | 0.06 | 55 | 1014.4 |
| 20260504011210 | 64 | 249 | 11.0 | 19.0 | 0.00 | 0.19 | 0.06 | 53 | 1014.2 |